DECAYED
Showing default

TIGER-5, 58277 (Decayed)

Orbit data source: Space-Track

TIGER-5, 58277 was a payload satellite owned by OQ Tech (RW) in LEO that was launched on Sat, 11 Nov 2023 UTC via an FALCON 9 launch vehicle from the Air Force Western Test Range (AFWTR). Payload-class satellites include a variety of spacecraft equipped with specific instruments for various scientific and technological missions. These include communications satellites like Starlink; space stations such as the ISS; scientific satellites like the Hubble; Earth observation satellites from companies like Planet Labs, Umbra, and HawkEye 360; GPS; miniature CubeSats for education and research; and military/defense satellites.

Not visible in the next 10 days
Identifier
58277, 2023-174X
Orbit
Decayed
Country
Flag of RWRW / RWA
Related business
Manufacturer
Space Inventor
Mission
Decayed Commercial Communications
Bus & Motor
CUBESAT 6U, Unknown motor
Mass
~10 kg wet, ~10 kg dry
Launch date (UTC)
2023-11-11 (3 years ago)
Launch vehicle
FALCON 9
Launch site
Air Force Western Test Range (AFWTR)
Object type
Payload
Rocket body
Debris
Shape & HBR
Box + 2 Pan, 0.1 m
Radar Cross Section
0.080 m², Medium (>0.1 m² and < 1m²)

Expand to show TLE details & history
Last TLE update: 2 months ago

TLE from 2 months ago
0 TIGER-5
1 58277U 23174X   26111.51498921  .10179857  25260-5  47333-3 0  9997
2 58277  97.3460 210.3630 0014140 263.7226  96.2464 16.41697132137588
Epoch: 2026-04-21T12:21Z
TLE epoch observation values (Epoch: 2026-04-21T12:21:35.067Z)
Latitude
-0.00004°
Longitude
175.37722°
Altitude
165.566 km
Speed
7.806 km/s
True Right ascension
14h 01m 27s
True Declination
0° 00' 00"
Sunlit
Object was in full shadow at epoch
Visualization orbit readout
Latitude
Unknown
Longitude
Unknown
Altitude
Unknown
Speed
Unknown
Apparent Right ascension
Unknown
Apparent Declination
Unknown
Sunlit
N/A
Visualization observer readout
Local Sidereal Time
02:15:26
Azimuth
Unknown
Elevation
Unknown
Doppler factor
Unknown
Orbital elements
Apogee altitude
167.337 km
Perigee altitude
148.853 km
Semi-major axis
6,536.232 km
Eccentricity
0.00141
Inclination
97.346°
RAAN
210.363°
Arg. of periapsis
263.7226°
True anomaly
96.40744°
Mean anomaly
96.2464°
Eccentric anomaly
96.32692°
Mean motion
4.10726 °/min
Orbital period
87.65 mins
BSTAR
0.00047333
Loading maneuver chart data...
Computing Atmospheric mass density...
Loading historical data...
Loading historical data...
Loading historical data...
Loading historical data...
Loading historical data...
Loading historical data...
Loading historical data...

Documentation

Showing up to 5 results
|